Regional Weather Roundup
Issued by NWS

Home | Current Version | Previous Version | Graphics & Text | Print | Product List | Glossary On
Versions: 1 2 3 4 5 6 7 8 9 10 11 12 13 14 15 16 17 18 19 20 21 22 23 24 25 26 27 28 29 30 31 32 33 34 35 36 37 38 39 40 41 42 43 44 45 46 47 48 49 50
000
ASUS43 KDMX 120607
RWRIA

WEATHER ROUNDUP FOR IOWA
NATIONAL WEATHER SERVICE DES MOINES IA
100 AM CDT SAT JUL 12 2014

NOTE: "FAIR" INDICATES FEW OR NO CLOUDS BELOW 12,000 FEET WITH NO
SIGNIFICANT WEATHER AND/OR OBSTRUCTIONS TO VISIBILITY.

* - THESE STATIONS ARE NOT NWS STATIONS...THUS NOT UNDER NWS
QUALITY CONTROL.  THEY ALSO DO NOT REPORT WEATHER SUCH
AS PRECIPITATION OR FOG.

IAZ001>003-012>014-020>022-031>034-043>046-120700-
   NORTHWEST IOWA

CITY           SKY/WX    TMP DP  RH WIND       PRES   REMARKS
CARROLL *      CLOUDY    70  70 100 SE7       30.02F FOG
CHEROKEE *     DRIZZLE   71  71 100 CALM      30.02S
DENISON *      CLOUDY    72  72 100 NE5       30.00F FOG
LE MARS *      PTCLDY    72  72 100 CALM      30.03S FOG
ORANGE CITY *  CLOUDY    72  70  94 S5        30.03R FOG
SHELDON *      PTCLDY    70  70 100 CALM      30.01S FOG
SIOUX CITY     TSTM      70  69  97 SW5       30.04R FOG
6HR MIN TEMP:  70; 6HR MAX TEMP:  76; 6HR PCP:  1.03;

SPENCER        MOCLDY    71  68  90 CALM      30.02F FOG
6HR MIN TEMP:  70; 6HR MAX TEMP:  78;

STORM LAKE *   CLOUDY    70  70 100 S10       30.04S FOG
$$

IAZ055>058-069>071-079>083-090>094-120700-
   SOUTHWEST IOWA

CITY           SKY/WX    TMP DP  RH WIND       PRES   REMARKS
ATLANTIC *     CLEAR     73  72  94 N5        29.99F FOG
AUDUBON *      CLEAR     73  72  94 CALM      30.02F FOG
CLARINDA *     CLEAR     77  75  94 S5        30.01F
COUNCIL BLFS *   N/A     75  75 100 SE6       29.98S
CRESTON *      CLEAR     75  73  94 SE9       30.01F
HARLAN  *      PTCLDY    73  73 100 E5        30.03F
LAMONI         MOCLDY    75  73  93 SE7       30.02F
6HR MIN TEMP:  75; 6HR MAX TEMP:  81;

RED OAK *      CLOUDY    77  75  94 S6        29.98F
SHENANDOAH *   CLEAR     79  75  89 CALM      29.99S HX  82
$$

IAZ047>049-059>061-072>074-084-120700-
   CENTRAL IOWA

CITY           SKY/WX    TMP DP  RH WIND       PRES   REMARKS
AMES           CLOUDY    71  70  96 CALM      30.03F FOG
6HR MIN TEMP:  70; 6HR MAX TEMP:  74;

ANKENY *       CLEAR     72  72 100 NE5       30.02F FOG
CHARITON *     CLOUDY    73  73 100 SE5       30.02F
DES MOINES     CLOUDY    75  72  90 E5        30.01F
6HR MIN TEMP:  75; 6HR MAX TEMP:  78;

GRINNELL*      CLOUDY    71  69  93 CALM      30.04F FOG
KNOXVILLE *    MOCLDY    73  72  94 E5        30.01F
MARSHALLTOWN   CLOUDY    71  70  96 SE3       30.04S FOG
6HR MIN TEMP:  71; 6HR MAX TEMP:  76; 6HR PCP: TRACE;

PELLA *        CLOUDY    73  71  96 SE5       30.03F FOG
PERRY *          N/A     70  70 100 NE3       30.02F FOG
$$

IAZ004>006-015-016-023>025-035-036-120700-
   NORTH CENTRAL IOWA

CITY           SKY/WX    TMP DP  RH WIND       PRES   REMARKS
ALGONA *       CLEAR     70  68  94 CALM      30.03F FOG
CLARION *      CLEAR     68  68 100 CALM      30.04F FOG
ESTHERVILLE    PTCLDY    67  66  97 S5        30.02F FOG
6HR MIN TEMP:  67; 6HR MAX TEMP:  79;

FORT DODGE *   CLOUDY    70  68  94 E6        30.03F
MASON CITY     PTCLDY    65  65 100 S3        30.06F FOG
6HR MIN TEMP:  65; 6HR MAX TEMP:  75;

FOREST CITY *  CLEAR     64  64 100 CALM      30.04F FOG
IOWA FALLS *   CLOUDY    70  68  94 CALM      30.05F FOG
$$

IAZ007>011-017>019-026>030-037>042-050>054-066-120700-
   NORTHEAST IOWA

CITY           SKY/WX    TMP DP  RH WIND       PRES   REMARKS
CEDAR RAPIDS   MOCLDY    71  68  90 SE5       30.04S
6HR MIN TEMP:  70; 6HR MAX TEMP:  77;

CHARLES CITY * MOCLDY    68  68 100 SW3       30.06S
CLINTON *      CLOUDY    73  66  78 SE8       30.08F
DECORAH *        N/A    N/A N/A N/A MISG        N/A
DUBUQUE        CLOUDY    70  66  87 SE7       30.06F
6HR MIN TEMP:  70; 6HR MAX TEMP:  76;

MONTICELLO *   CLEAR     72  68  88 SE5       30.04F
OELWEIN *      CLOUDY    70  70 100 S5        30.06S
WATERLOO       CLOUDY    73  69  87 S5        30.03S
6HR MIN TEMP:  73; 6HR MAX TEMP:  77;

$$

IAZ064-065-067-068-078-120700-
   EAST CENTRAL IOWA

CITY           SKY/WX    TMP DP  RH WIND       PRES   REMARKS
DAVENPORT      PTCLDY    74  66  76 SE12      30.06F
6HR MIN TEMP:  73; 6HR MAX TEMP:  77;

IOWA CITY      CLOUDY    73  69  87 CALM      30.05F
6HR MIN TEMP:  72; 6HR MAX TEMP:  77;

MT. PLEASANT * PTCLDY    74  70  89 S5        30.04F
MUSCATINE *    MOCLDY    75  68  78 SE5       30.04F
QUAD CITIES    MOCLDY    72  66  81 SE3       30.05F
6HR MIN TEMP:  72; 6HR MAX TEMP:  78;

$$

IAZ062-063-075>077-085>089-095>099-120700-
   SOUTHEAST IOWA

CITY           SKY/WX    TMP DP  RH WIND       PRES   REMARKS
BURLINGTON     PTCLDY    75  71  87 S7        30.04F
6HR MIN TEMP:  75; 6HR MAX TEMP:  77;

FAIRFIELD *    CLOUDY    72  70  94 SE6       30.04F
FORT MADISON * CLEAR     77  72  83 S7        30.06F
KEOKUK *       CLEAR     77  72  83 SE6       30.05S
OSKALOOSA *      N/A     72  71  95 SE7       30.03F FOG
CENTERVILLE *  CLEAR     73  73 100 S5        30.04F
OTTUMWA        MOCLDY    72  70  93 SE5       30.03F FOG
6HR MIN TEMP:  71; 6HR MAX TEMP:  77;

WASHINGTON *   PTCLDY    72  70  94 S7        30.04F
$$

ABBREVIATIONS USED IN REMARKS
   TC - TEMPERATURES IN CELSIUS
  WCI - WIND CHILL INDEX
   HX - HEAT INDEX
  VSB - VISIBILITY
$$



USA.gov is the U.S. government's official web portal to all federal, state and local government web resources and services.